DateTimeUTC,F1_A11,F1_S11,BsB_S11,BsG_S11,BsR_S11,BbsB_S11,BbsG_S11,BbsR_S11,BaB_A11,BaG_A11,BaR_A11,Tu_S11,T_S11,Uu_S11,U_S11,P_S11,T1_A11
2021-02-02T21:00:00Z,00000200,21000000,,,,,,,-000.08,0000.19,-000.24,15.0,22.5,,00.0,0629.4,30.8
2021-02-02T21:01:00Z,00000200,21000000,,,,,,,-000.07,-000.40,-000.08,14.9,22.5,,00.0,0629.4,30.8
2021-02-02T21:02:00Z,00000200,21000000,,,,,,,0000.35,0000.22,0000.56,14.9,22.5,,00.0,0629.4,30.8
2021-02-02T21:03:00Z,00000200,61000000,,,,,,,0000.20,0000.33,0000.00,14.9,22.5,,00.0,0629.4,30.8
2021-02-02T21:04:00Z,00000200,41000000,0000.31,0000.54,0000.19,0000.27,0000.06,-000.24,0000.07,-000.21,0000.61,15.1,22.2,,00.0,0630.1,30.8
2021-02-02T21:05:00Z,00000200,01000000,0000.64,0000.20,0000.28,-000.38,0000.35,0000.02,0000.62,0000.70,0000.16,15.2,22.2,,00.0,0630.2,30.8
2021-02-02T21:06:00Z,00000200,01000000,0000.99,0000.15,0000.37,-000.21,0000.51,-000.03,0000.04,-000.03,-000.24,15.3,22.2,,00.0,0630.2,30.8
2021-02-02T21:07:00Z,00000200,01000000,0000.58,0000.06,0000.43,-000.31,0000.10,0000.05,0000.02,0000.48,0000.38,15.4,22.2,,00.0,0630.2,30.8
2021-02-02T21:08:00Z,00000200,01000000,0000.61,0000.19,-000.03,-000.13,0000.19,0000.07,0000.35,-000.12,0000.20,15.4,22.2,,00.0,0630.3,30.8
2021-02-02T21:09:00Z,00000200,01000000,0000.78,0000.08,0000.40,-000.42,0000.17,0000.10,0000.28,0000.68,-000.01,15.5,22.2,,00.0,0630.3,30.8
2021-02-02T21:10:00Z,00000200,01000000,0000.99,0000.44,0000.33,0000.10,-000.10,0000.13,0000.24,-000.15,0000.02,15.5,22.3,,00.0,0630.4,30.8
2021-02-02T21:11:00Z,00000200,01000000,0000.24,0000.21,0000.15,-000.36,0000.17,-000.02,-000.12,-000.01,-000.19,15.6,22.3,,00.0,0630.4,30.8
2021-02-02T21:12:00Z,00000200,01000000,0000.49,0000.26,0000.11,0000.07,0000.26,0000.13,-000.11,-000.24,0000.46,15.6,22.3,,00.0,0630.5,30.8
2021-02-02T21:13:00Z,00000200,01000000,0000.57,0000.03,0000.23,-000.04,0000.25,0000.12,-000.30,0000.14,-000.12,15.6,22.3,,00.0,0630.5,30.8
2021-02-02T21:14:00Z,00000200,01000000,0000.56,0000.11,0000.25,-000.16,0000.10,0000.12,0000.23,0000.08,-000.10,15.6,22.3,,00.0,0630.5,30.8
2021-02-02T21:15:00Z,00000200,01000000,0001.01,0000.25,0000.14,0000.22,0000.06,0000.00,-000.08,-000.02,-000.06,15.5,22.2,,00.0,0630.5,30.8
2021-02-02T21:16:00Z,00000200,01000000,0000.62,0000.37,0000.09,-000.20,0000.10,0000.11,-000.15,0000.04,-000.47,15.4,22.2,,00.0,0630.5,30.8
2021-02-02T21:17:00Z,00000200,01000000,0000.76,0000.32,0000.18,-000.23,0000.25,0000.26,0000.31,0000.37,0000.51,15.4,22.2,,00.0,0630.4,30.8
2021-02-02T21:18:00Z,00000200,01000000,0000.07,0000.24,-000.05,-000.63,0000.14,-000.00,0000.40,-000.10,0000.23,15.4,22.2,,00.0,0630.4,30.8
2021-02-02T21:19:00Z,00000200,01000000,0000.88,0000.45,0000.12,-000.26,0000.36,0000.14,-000.04,0000.23,0000.15,15.5,22.2,,00.0,0630.4,30.8
2021-02-02T21:20:00Z,00000200,01000000,0000.85,0000.23,-000.01,-000.17,0000.17,0000.01,0000.49,0000.16,0000.36,15.5,22.2,,00.0,0630.4,30.8
2021-02-02T21:21:00Z,00000200,01000000,0000.41,0000.35,0000.06,0000.12,0000.03,0000.14,0000.03,-000.10,0000.15,15.5,22.2,,00.0,0630.4,30.8
2021-02-02T21:22:00Z,00000200,01000000,0000.46,0000.36,-000.09,0000.20,0000.22,-000.14,-000.04,0000.45,-000.34,15.6,22.3,,00.0,0630.5,30.8
2021-02-02T21:23:00Z,00000200,01000000,0001.28,0000.37,0000.28,-000.48,0000.18,0000.18,-000.04,-000.51,0000.01,15.6,22.3,,00.0,0630.5,30.8
2021-02-02T21:24:00Z,00000200,01000000,0000.47,0000.54,0000.24,-000.17,0000.21,-000.06,0000.39,0000.64,0000.26,15.6,22.3,,00.0,0630.5,30.8
2021-02-02T21:25:00Z,00000200,01000000,0000.48,-000.14,-000.08,-000.21,0000.24,-000.03,0000.30,0000.23,0000.19,15.5,22.2,,00.0,0630.6,30.8
2021-02-02T21:26:00Z,00000200,01000000,0001.18,0000.30,-000.05,0000.09,0000.13,-000.02,-000.24,0000.19,-000.27,15.4,22.2,,00.0,0630.5,30.8
2021-02-02T21:27:00Z,00000200,01000000,0001.01,0000.06,0000.14,-000.17,0000.25,0000.12,0000.09,0000.02,0000.39,15.4,22.2,,00.0,0630.5,30.8
2021-02-02T21:28:00Z,00000200,01000000,0001.37,0000.03,0000.02,-000.37,0000.12,-000.02,-000.05,-000.18,0000.06,15.3,22.1,,00.0,0630.5,30.8
2021-02-02T21:29:00Z,00000200,01000000,0000.47,0000.22,0000.18,0000.16,-000.09,0000.05,0000.47,0000.16,-000.11,15.2,22.1,,00.0,0630.5,30.8
2021-02-02T21:30:00Z,00000200,01000000,0000.76,0000.15,0000.18,-000.33,0000.03,0000.02,-000.02,0000.04,0000.23,15.1,22.0,,00.0,0630.7,30.8
2021-02-02T21:31:00Z,00000200,01000000,0000.48,0000.20,0000.05,0000.18,0000.27,0000.24,0000.04,-000.50,-000.36,15.1,22.0,,00.0,0630.7,30.8
2021-02-02T21:32:00Z,00000200,01000000,0000.48,0000.31,0000.09,0000.08,0000.37,0000.13,-000.07,0000.16,0000.15,15.0,22.0,,00.0,0630.8,30.7
2021-02-02T21:33:00Z,00000200,01000000,-000.02,0000.23,-000.21,0000.07,0000.11,0000.04,0000.12,-000.07,0000.07,15.1,22.0,,00.0,0630.8,30.8
2021-02-02T21:34:00Z,00000200,01000000,0000.72,-000.06,-000.25,-000.17,-000.01,-000.08,-000.06,-000.37,-000.14,15.1,22.0,,00.0,0630.8,30.8
2021-02-02T21:35:00Z,00000200,01000000,0001.09,0000.18,0000.17,-000.03,0000.18,0000.32,-000.20,0000.50,0000.16,15.2,22.0,,00.0,0630.8,30.8
2021-02-02T21:36:00Z,00000200,01000000,0000.51,-000.01,-000.03,-000.12,0000.10,-000.01,-000.25,-000.42,-000.10,15.2,22.0,,00.0,0630.8,30.8
2021-02-02T21:37:00Z,00000200,01000000,0000.92,0000.20,-000.03,0000.06,-000.00,0000.01,0000.53,0000.78,0000.09,15.3,22.1,,00.0,0630.8,30.8
2021-02-02T21:38:00Z,00000200,01000000,0001.12,0000.28,0000.01,-000.08,0000.17,-000.37,-000.04,-000.04,-000.01,15.3,22.1,,00.0,0630.9,30.8
2021-02-02T21:39:00Z,00000200,01000000,0000.42,0000.04,0000.24,-000.41,-000.03,0000.32,-000.26,-000.25,0000.15,15.3,22.1,,00.0,0630.9,30.8
2021-02-02T21:40:00Z,00000200,01000000,0000.67,0000.15,-000.03,0000.53,0000.28,0000.25,0000.29,0000.20,0000.01,15.4,22.1,,00.0,0630.9,30.8
2021-02-02T21:41:00Z,00000200,01000000,0000.25,-000.06,-000.07,0000.05,0000.12,-000.01,0000.60,0000.58,0000.00,15.4,22.1,,00.0,0630.8,30.8
2021-02-02T21:42:00Z,00000200,01000000,0000.44,0000.07,-000.07,0000.28,0000.20,0000.15,-000.53,-000.23,-000.11,15.3,22.0,,00.0,0630.8,30.8
2021-02-02T21:43:00Z,00000200,01000000,0000.88,0000.09,-000.06,0000.11,-000.05,0000.07,-000.22,-000.24,-000.02,15.2,22.0,,00.0,0630.8,30.8
2021-02-02T21:44:00Z,00000200,01000000,0000.78,0000.12,-000.10,0000.03,0000.14,-000.01,0000.71,0000.29,0000.39,15.1,22.0,,00.0,0630.8,30.8
2021-02-02T21:45:00Z,00000200,01000000,0000.54,0000.11,0000.27,0000.36,0000.45,0000.10,-000.04,-000.02,-000.09,15.0,21.9,,00.0,0630.8,30.8
2021-02-02T21:46:00Z,00000200,01000000,0001.23,0000.34,0000.19,-000.13,0000.14,0000.09,0000.06,-000.52,0000.32,15.0,21.9,,00.0,0630.8,30.8
2021-02-02T21:47:00Z,00000200,01000000,0000.74,0000.17,-000.02,-000.15,0000.23,-000.11,0000.07,0000.49,-000.25,15.0,21.9,,00.0,0630.8,30.8
2021-02-02T21:48:00Z,00000200,01000000,0000.62,0000.36,0000.39,-000.22,-000.06,-000.03,0000.40,0000.05,0000.31,15.0,21.9,,00.0,0630.8,30.8
2021-02-02T21:49:00Z,00000200,01000000,0000.85,0000.15,-000.10,-000.23,0000.26,0000.25,0000.40,0000.81,0000.01,15.0,21.9,,00.0,0630.8,30.8
2021-02-02T21:50:00Z,00000200,01000000,0001.36,0000.36,-000.03,-000.24,0000.27,0000.15,-000.16,0000.27,0000.65,15.1,21.9,,00.0,0630.8,30.8
2021-02-02T21:51:00Z,00000200,01000000,0000.68,0000.15,0000.03,0000.13,-000.02,0000.16,0000.18,-000.23,-000.13,15.1,21.9,,00.0,0630.8,30.8
2021-02-02T21:52:00Z,00000200,01000000,0000.82,0000.29,-000.20,-000.33,0000.23,-000.19,0000.08,0000.50,-000.00,15.2,22.0,,00.0,0630.9,30.8
2021-02-02T21:53:00Z,00000200,01000000,0000.46,0000.17,-000.12,-000.33,0000.01,0000.13,0000.29,0000.12,0000.17,15.2,22.0,,00.0,0630.9,30.8
2021-02-02T21:54:00Z,00000200,01000000,-000.04,-000.06,0000.27,-000.15,0000.17,0000.19,-000.21,-000.08,-000.29,15.3,22.0,,00.0,0631.0,30.8
2021-02-02T21:55:00Z,00000200,01000000,0000.58,0000.25,0000.16,0000.31,0000.13,0000.02,0000.24,-000.08,0000.16,15.4,22.0,,00.0,0631.0,30.8
2021-02-02T21:56:00Z,00000200,01000000,-000.02,0000.30,-000.03,-000.18,0000.18,-000.02,-000.39,0000.30,0000.04,15.4,22.0,,00.0,0631.0,30.8
2021-02-02T21:57:00Z,00000200,41000000,,,,,,,0000.59,-000.04,0000.44,15.5,22.1,,00.0,0631.1,30.8
2021-02-02T21:58:00Z,00000200,61000000,,,,,,,0000.26,0000.33,-000.09,15.0,22.2,,00.0,0630.1,30.8
2021-02-02T21:59:00Z,00000200,21000000,,,,,,,-000.44,-000.62,-000.31,14.9,22.3,,00.0,0630.1,30.8
